Weather Service Report


830 
ASUS46 KSTO 300915
RWRCA 

NORTHERN AND CENTRAL CA REGIONAL WEATHER ROUNDUP
NATIONAL WEATHER SERVICE SACRAMENTO CA 
200 AM PDT SAT JUL 30 2016

NOTE: FAIR INDICATES FEW OR NO CLOUDS BELOW 12,000 FEET WITH NO
SIGNIFICANT WEATHER AND/OR OBSTRUCTIONS TO VISIBILITY.

CAZ001-003-301000-
NORTHWEST AREA
  
CITY           SKY/WX    TMP DP  RH WIND       PRES   REMARKS
CRESCENT CITY  CLEAR     55  52  89 CALM      29.82F                  
UKIAH          CLEAR     67  45  45 CALM      29.77F                  
$$

CAZ006-505>513-301000-
BAY AREA
  
CITY           SKY/WX    TMP DP  RH WIND       PRES   REMARKS
SANTA ROSA     CLOUDY    51  50  96 S6        29.80S                  
SAN RAFAEL     N/A       64  MM  MM MISG
NAPA           CLEAR     53  51  93 CALM      29.80R                  
CONCORD        CLEAR     63  51  65 N5        29.76F                  
OAKLAND CITY   N/A       68  MM  MM MISG
OAKLAND        CLOUDY    58  56  93 NW9       29.81S                  
SAN FRAN CITY  N/A       54  MM  99 MISG
SAN FRAN ARPT  PTCLDY    55  52  89 W13       29.81S                  
LIVERMORE      CLEAR     67  52  58 W6        29.77S                  
HAYWARD        CLEAR     59  52  77 NW6       29.80F                  
REDWOOD CITY   N/A       59  MM  83 MISG
MOFFETT ARPT   CLEAR     62  56  80 CALM      29.81S                  
SAN JOSE ARPT  CLEAR     63  58  83 NW5       29.80S                  
$$
CAZ034-037-514>518-301000-
CENTRAL COAST
  
CITY           SKY/WX    TMP DP  RH WIND       PRES   REMARKS
WATSONVILLE    FOG       54  53  97 CALM      29.83F VSB 3/4          
SALINAS        CLOUDY    56  53  90 W3        29.83F                  
MONTEREY       CLOUDY    55  53  93 CALM      29.83F                  
SAN LUIS OBISP PTCLDY    57  54  89 CALM      29.82S                  
SANTA MARIA    CLOUDY    55  55 100 CALM      29.83S FOG              
$$
CAZ015-016-301000-
NORTHERN SACRAMENTO VALLEY
  
CITY           SKY/WX    TMP DP  RH WIND       PRES   REMARKS
REDDING        CLEAR     80  57  45 CALM      29.73S                  
RED BLUFF      CLEAR     77  62  59 NW6       29.73R                  
OROVILLE       CLEAR     80  54  40 S7        29.72S                  
$$
CAZ016>018-301000-
SOUTHERN SACRAMENTO VALLEY
  
CITY           SKY/WX    TMP DP  RH WIND       PRES   REMARKS
BEALE AFB      CLEAR     79  46  31 SE6       29.69S                  
LINCOLN        FAIR      75  41  29 S8        29.70F                  
MARYSVILLE     CLEAR     80  48  32 S10       29.70S                  
SAC INTL ARPT  CLEAR     73  51  46 SE13      29.70S                  
MATHER AIRPORT NOT AVBL                                               
DOWNTOWN SAC   N/A       74  MM  MM MISG
SAC EXEC ARPT  CLEAR     71  50  47 S6        29.72S                  
VACAVILLE      CLEAR     72  51  47 SW12      29.71S                  
TRAVIS AFB     CLEAR     62  55  77 SW25G31   29.69S                  
$$
CAZ019>021-301000-
SAN JOAQUIN VALLEY
  
CITY           SKY/WX    TMP DP  RH WIND       PRES   REMARKS
STOCKTON       PTCLDY    74  54  49 N6        29.72F                  
MODESTO        CLEAR     82  48  30 N5        29.71F                  
MERCED         CLEAR     75  57  53 W6        29.71S                  
LEMOORE        CLEAR     78  46  32 NW8       29.72F                  
FRESNO         CLOUDY    83  53  35 NW7       29.72F                  
HANFORD        CLEAR     81  54  39 NW5       29.72F                  
PORTERVILLE    CLEAR     76  56  49 SE6       29.74F                  
BAKERSFIELD    CLEAR     83  45  26 N7        29.74S                  
$$
CAZ011-012-071-301000-
NORTHERN MOUNTAINS
  
CITY           SKY/WX    TMP DP  RH WIND       PRES   REMARKS
YREKA          CLEAR     78  44  29 N10       29.92S                  
MOUNT SHASTA   CLEAR     67  53  61 NE3       29.97S                  
ALTURAS        CLEAR     71  51  49 CALM      30.02S                  
$$
CAZ011-012-071-301000-
SIERRA NEVADA MTNS
  
CITY           SKY/WX    TMP DP  RH WIND       PRES   REMARKS
BLUE CANYON    CLEAR     77  38  24 NE3       30.12F                  
TRUCKEE        CLEAR     52  39  62 CALM      30.17F                  
TAHOE VLY ARPT CLEAR     56  42  59 SW3       30.19F                  
MAMMOTH LAKES    N/A     60  42  51 CALM      30.27S                  
$$
  

Return to Home page


Western Regional Climate Center, wrcc@dri.edu